Weather History for KCDR - November, 2013

Change the Weather History Date:

Thursday, November 14, 2013

  Actual Average Record
Temperature  
Mean Temperature 42 °F 35 °F  
Max Temperature 55 °F 49 °F 77 °F (1953)
Min Temperature 29 °F 20 °F -13 °F (1959)
Degree Days  
Heating Degree Days 23 30  
Month to date heating degree days 371 378  
Since 1 July heating degree days 1092 1131  
Cooling Degree Days 0 0  
Month to date cooling degree days 0 0  
Year to date cooling degree days 917 712  
Moisture  
Dew Point 35 °F    
Average Humidity 73    
Maximum Humidity 100    
Minimum Humidity 45    
Precipitation  
Precipitation 0.05 in 0.02 in 0.20 in (1926)
Month to date precipitation 0.28 0.35  
Year to date precipitation 18.90 17.26  
Sea Level Pressure  
Sea Level Pressure 29.97 in    
Wind  
Wind Speed 5 mph (West)    
Max Wind Speed 13 mph    
Max Gust Speed 17 mph    
Visibility 10 miles    
Events Rain    
T = Trace of Precipitation, MM = Missing Value Source: NWS Daily Summary

Daily Weather History Graph

Daily Weather History Graph

Search for Another Location

Airport or City:

Trip Planner

Search our weather history database for the weather conditions in past years. The results will help you decide how hot, cold, wet, or windy it might be!

Date:

Astronomy

Nov. 14, 2013 Rise Set
Actual Time 6:43 AM MST 4:29 PM MST
Civil Twilight 6:13 AM MST 5:00 PM MST
Nautical Twilight 5:38 AM MST 5:34 PM MST
Astronomical Twilight 5:05 AM MST 6:07 PM MST
Moon 2:55 PM MST (11/14) 3:37 AM MST (11/14)
Length of Visible Light 10h 47m
Length of Day
9h 46m
Waxing Gibbous, 92% of the Moon is Illuminated
Nov 14
Waxing Gibbous
Nov 17
Full
Nov 25
Last Quarter
Dec 2
New
Dec 9
First Quarter

Hourly Weather History & Observations

Time (MST) Temp. Windchill Dew Point Humidity Pressure Visibility Wind Dir Wind Speed Gust Speed Precip Events Conditions
12:53 AM 46.9 °F - 37.0 °F 68% 30.03 in 10.0 mi NNE 9.2 mph - 0.00 in Rain Light Rain
1:53 AM 44.1 °F - 41.0 °F 89% 30.06 in 10.0 mi Calm Calm - 0.03 in Rain Light Rain
2:53 AM 43.0 °F 38.2 °F 41.0 °F 93% 30.05 in 10.0 mi SE 8.1 mph - 0.02 in Rain Light Rain
3:53 AM 39.9 °F 36.7 °F 39.0 °F 97% 30.07 in 9.0 mi WNW 4.6 mph - 0.00 in   Mostly Cloudy
4:53 AM 39.9 °F 35.1 °F 39.0 °F 97% 30.09 in 10.0 mi SW 6.9 mph - 0.00 in   Overcast
5:53 AM 37.0 °F 31.6 °F 36.0 °F 96% 30.11 in 10.0 mi WSW 6.9 mph - N/A   Clear
6:53 AM 37.9 °F 32.7 °F 36.0 °F 93% 30.11 in 10.0 mi WSW 6.9 mph - N/A   Overcast
7:53 AM 39.9 °F 34.5 °F 37.9 °F 93% 30.11 in 10.0 mi SW 8.1 mph - N/A   Clear
8:53 AM 44.1 °F 40.1 °F 39.0 °F 82% 30.10 in 10.0 mi SW 6.9 mph - N/A   Clear
9:53 AM 48.9 °F - 37.0 °F 64% 30.07 in 10.0 mi West 9.2 mph - N/A   Clear
10:53 AM 51.1 °F - 35.1 °F 54% 30.03 in 10.0 mi West 9.2 mph - N/A   Clear
11:53 AM 52.0 °F - 34.0 °F 50% 29.97 in 10.0 mi WSW 8.1 mph - N/A   Partly Cloudy
12:53 PM 54.0 °F - 33.1 °F 45% 29.93 in 10.0 mi West 8.1 mph - N/A   Mostly Cloudy
1:53 PM 54.0 °F - 33.1 °F 45% 29.91 in 10.0 mi Variable 3.5 mph - N/A   Clear
2:02 PM 53.6 °F - 33.8 °F 47% 29.88 in 1.5 mi North 5.8 mph - N/A   Haze
2:10 PM 53.6 °F - 33.8 °F 47% 29.88 in 10.0 mi North 4.6 mph - N/A   Clear
2:53 PM 54.0 °F - 32.0 °F 43% 29.89 in 10.0 mi Calm Calm - N/A   Clear
3:53 PM 48.9 °F - 33.1 °F 54% 29.90 in 10.0 mi Calm Calm - N/A   Clear
4:53 PM 44.1 °F - 33.1 °F 65% 29.92 in 10.0 mi Calm Calm - N/A   Clear
5:53 PM 36.0 °F 33.3 °F 32.0 °F 86% 29.94 in 10.0 mi SW 3.5 mph - N/A   Clear
6:53 PM 37.0 °F - 32.0 °F 82% 29.93 in 10.0 mi Calm Calm - N/A   Clear
7:53 PM 35.1 °F 32.2 °F 32.0 °F 89% 29.92 in 10.0 mi SW 3.5 mph - N/A   Clear
8:53 PM 33.1 °F 26.9 °F 30.9 °F 92% 29.91 in 10.0 mi WSW 6.9 mph - N/A   Clear
9:53 PM 33.1 °F - 30.9 °F 92% 29.87 in 10.0 mi Calm Calm - N/A   Clear
10:53 PM 30.0 °F - 28.9 °F 96% 29.83 in 10.0 mi Calm Calm - N/A   Clear
11:53 PM 30.0 °F - 28.0 °F 92% 29.80 in 10.0 mi Calm Calm - N/A   Clear